DateTimeUTC,F1_A11,F1_S11,BsB_S11,BsG_S11,BsR_S11,BbsB_S11,BbsG_S11,BbsR_S11,BaB_A11,BaG_A11,BaR_A11,Tu_S11,T_S11,Uu_S11,U_S11,P_S11,T1_A11
2021-08-31T10:00:00Z,00000200,21000000,,,,,,,0000.92,0000.73,0000.49,17.6,24.8,,00.0,0674.3,30.9
2021-08-31T10:01:00Z,00000200,21000000,,,,,,,-000.14,-000.00,-000.01,17.6,24.8,,00.0,0674.3,30.9
2021-08-31T10:02:00Z,00000200,21000000,,,,,,,0000.90,0000.84,0000.75,17.7,24.8,,00.0,0674.3,30.9
2021-08-31T10:03:00Z,00000200,61000000,,,,,,,0002.21,0002.07,0001.86,17.7,24.9,,00.0,0674.3,30.9
2021-08-31T10:04:00Z,00000200,41000000,0000.59,-000.19,-000.04,-000.61,0000.27,0000.04,-000.27,-000.78,-000.35,18.2,24.8,00.1,00.1,0675.2,30.9
2021-08-31T10:05:00Z,00000200,01000000,0000.70,-000.13,-000.24,-000.20,0000.14,-000.02,0000.52,0000.94,0000.17,18.3,24.8,00.1,00.1,0675.3,30.9
2021-08-31T10:06:00Z,00000200,01000000,-000.15,-000.01,0000.17,-000.31,0000.23,0000.30,0000.58,0000.89,0000.60,18.3,24.8,00.2,00.2,0675.3,30.9
2021-08-31T10:07:00Z,00000200,01000000,0000.26,0000.01,0000.08,-000.05,-000.07,0000.28,0000.54,0000.34,0000.71,18.2,24.8,00.4,00.3,0675.3,30.9
2021-08-31T10:08:00Z,00000200,01000000,0000.36,0000.29,0000.15,-000.10,-000.12,0000.22,-000.62,-000.61,-000.98,18.2,24.7,00.5,00.3,0675.3,30.9
2021-08-31T10:09:00Z,00000200,01000000,0000.45,-000.02,0000.23,0000.09,0000.18,0000.12,-001.02,-001.16,-000.57,18.1,24.7,00.2,00.2,0675.3,30.9
2021-08-31T10:10:00Z,00000200,01000000,-000.15,0000.14,0000.00,-000.12,0000.14,0000.33,-000.62,-000.80,-000.37,18.0,24.7,00.1,00.0,0675.3,30.9
2021-08-31T10:11:00Z,00000200,01000000,0000.39,0000.16,0000.30,-000.06,0000.01,0000.42,-000.95,-000.48,-000.67,18.0,24.6,00.0,00.0,0675.3,30.9
2021-08-31T10:12:00Z,00000200,01000000,-000.28,0000.29,-000.27,-000.66,0000.05,0000.07,0000.28,0000.08,0000.27,18.0,24.6,00.0,00.0,0675.3,30.9
2021-08-31T10:13:00Z,00000200,01000000,0000.22,0000.20,-000.12,-000.85,0000.12,-000.06,0001.52,0001.30,0000.57,17.9,24.5,00.1,00.0,0675.3,30.9
2021-08-31T10:14:00Z,00000200,01000000,0000.30,-000.06,0000.34,-000.48,-000.16,-000.13,0000.52,0000.55,0000.85,17.9,24.5,00.1,00.1,0675.3,30.9
2021-08-31T10:15:00Z,00000200,01000000,-000.11,-000.03,-000.17,-000.21,0000.20,0000.26,-000.48,-000.55,-000.39,18.0,24.5,00.1,00.1,0675.3,30.9
2021-08-31T10:16:00Z,00000200,01000000,0000.22,-000.08,-000.01,-000.51,0000.16,0000.11,0000.17,0000.77,0000.25,18.1,24.6,00.1,00.1,0675.3,30.9
2021-08-31T10:17:00Z,00000200,01000000,0000.25,0000.41,0000.08,-000.51,0000.16,0000.33,0000.39,0000.23,0000.46,18.2,24.6,00.2,00.1,0675.3,30.9
2021-08-31T10:18:00Z,00000200,01000000,0000.39,0000.11,0000.09,0000.40,0000.03,0000.31,-001.04,-000.99,-001.14,18.3,24.7,00.2,00.1,0675.3,31.0
2021-08-31T10:19:00Z,00000200,01000000,0000.61,0000.28,0000.10,-000.38,-000.07,0000.03,-001.15,-001.40,-000.43,18.4,24.7,00.1,00.1,0675.3,31.0
2021-08-31T10:20:00Z,00000200,01000000,0000.53,-000.08,0000.14,-000.32,0000.07,0000.26,-000.02,0000.00,-000.78,18.4,24.8,00.0,00.0,0675.3,31.0
2021-08-31T10:21:00Z,00000200,01000000,-000.19,-000.12,0000.22,-000.48,0000.07,0000.30,0000.64,0000.43,0000.54,18.4,24.7,00.0,00.0,0675.3,31.0
2021-08-31T10:22:00Z,00000200,01000000,0000.30,0000.37,0000.11,-000.21,0000.38,0000.09,-000.89,-000.09,-000.12,18.3,24.7,00.0,00.0,0675.3,30.9
2021-08-31T10:23:00Z,00000200,01000000,0000.07,0000.48,0000.03,-000.20,0000.08,0000.06,0000.05,-000.52,-000.59,18.2,24.7,00.0,00.0,0675.3,30.9
2021-08-31T10:24:00Z,00000200,01000000,0000.71,0000.34,0000.15,-000.53,0000.03,0000.23,-000.64,-000.57,-000.21,18.2,24.6,,00.0,0675.3,30.9
2021-08-31T10:25:00Z,00000200,01000000,0000.60,-000.16,-000.14,-000.31,0000.09,0000.47,0000.14,-000.33,-000.15,18.1,24.6,00.0,00.0,0675.3,30.9
2021-08-31T10:26:00Z,00000200,01000000,-000.45,0000.01,-000.11,-000.16,0000.13,0000.15,0000.00,0000.47,0000.39,18.1,24.6,,00.0,0675.3,30.9
2021-08-31T10:27:00Z,00000200,01000000,0000.03,-000.03,-000.19,-000.30,0000.15,0000.07,0000.79,0000.56,0000.28,18.0,24.5,,00.0,0675.3,30.9
2021-08-31T10:28:00Z,00000200,01000000,-000.07,0000.18,0000.02,-000.08,0000.06,0000.22,-000.60,-000.50,-000.50,18.0,24.5,,00.0,0675.3,30.9
2021-08-31T10:29:00Z,00000200,01000000,-000.05,-000.20,0000.06,0000.44,0000.02,0000.23,0000.01,0000.36,0000.29,18.0,24.5,,00.0,0675.3,30.9
2021-08-31T10:30:00Z,00000200,01000000,0001.31,-000.01,0000.24,0000.21,-000.18,0000.08,0000.15,-000.27,0000.24,18.0,24.5,00.0,00.0,0675.3,30.9
2021-08-31T10:31:00Z,00000200,01000000,0000.40,0000.18,0000.07,-000.82,0000.14,0000.29,0000.30,0000.73,0000.31,18.1,24.6,00.0,00.0,0675.3,30.9
2021-08-31T10:32:00Z,00000200,01000000,0000.09,-000.20,0000.02,0000.46,-000.43,0000.11,0000.03,-000.40,-000.08,18.2,24.6,00.0,00.0,0675.4,30.9
2021-08-31T10:33:00Z,00000200,01000000,0000.53,0000.17,0000.10,-000.52,0000.18,0000.23,0000.15,0000.14,0000.11,18.3,24.7,00.0,00.0,0675.4,30.9
2021-08-31T10:34:00Z,00000200,01000000,0000.71,0000.00,-000.49,-000.17,0000.09,0000.07,0001.11,0000.86,0000.75,18.4,24.7,00.0,00.0,0675.3,30.9
2021-08-31T10:35:00Z,00000200,01000000,0000.51,-000.03,0000.13,-000.22,-000.18,0000.32,0001.46,0001.65,0001.13,18.4,24.7,00.1,00.1,0675.2,31.0
2021-08-31T10:36:00Z,00000200,01000000,-000.18,0000.14,0000.00,-000.47,0000.14,-000.36,0000.13,0000.02,-000.16,18.4,24.7,00.3,00.2,0675.3,30.9
2021-08-31T10:37:00Z,00000200,01000000,-000.18,-000.07,0000.26,-000.10,0000.08,0000.47,0000.25,0000.32,0000.40,18.3,24.7,00.3,00.2,0675.3,30.9
2021-08-31T10:38:00Z,00000200,01000000,0000.22,0000.05,0000.00,-000.25,0000.25,0000.18,-000.38,-000.49,-000.19,18.2,24.7,00.3,00.2,0675.3,30.9
2021-08-31T10:39:00Z,00000200,01000000,-000.25,0000.34,0000.09,-000.55,0000.15,-000.09,-000.19,0000.20,-000.13,18.2,24.6,00.1,00.1,0675.3,30.9
2021-08-31T10:40:00Z,00000200,01000000,0000.20,0000.02,0000.31,-000.27,-000.04,0000.40,0000.25,-000.06,-000.18,18.1,24.6,00.3,00.2,0675.3,30.9
2021-08-31T10:41:00Z,00000200,01000000,0000.45,0000.12,0000.20,0000.08,0000.05,0000.21,-000.01,0000.06,0000.27,18.1,24.6,00.2,00.2,0675.3,30.9
2021-08-31T10:42:00Z,00000200,01000000,-000.56,0000.22,0000.01,-000.27,-000.04,0000.13,0000.84,0000.62,0000.24,18.0,24.6,00.4,00.2,0675.3,30.9
2021-08-31T10:43:00Z,00000200,01000000,0000.51,0000.08,0000.25,-000.23,0000.10,0000.35,0000.34,0000.72,0000.63,18.0,24.5,00.4,00.3,0675.3,30.9
2021-08-31T10:44:00Z,00000200,01000000,0000.63,0000.25,0000.07,-000.52,-000.04,0000.10,0000.44,0000.50,0000.37,18.0,24.5,00.7,00.5,0675.3,30.9
2021-08-31T10:45:00Z,00000200,01000000,0000.14,0000.52,0000.16,0000.26,0000.07,0000.51,-000.40,-000.85,-000.37,18.1,24.5,00.6,00.4,0675.4,30.9
2021-08-31T10:46:00Z,00000200,01000000,0001.01,0000.55,0000.22,-000.05,0000.13,0000.18,0001.10,0001.14,0000.51,18.2,24.6,00.5,00.4,0675.3,30.9
2021-08-31T10:47:00Z,00000200,01000000,-000.15,0000.46,0000.02,-000.02,0000.15,-000.06,0001.20,0001.54,0001.17,18.3,24.6,00.8,00.6,0675.2,30.9
2021-08-31T10:48:00Z,00000200,01000000,0000.90,0000.13,0000.29,-000.66,0000.14,-000.13,0000.23,0000.16,0000.48,18.5,24.7,01.1,00.8,0675.3,30.9
2021-08-31T10:49:00Z,00000200,01000000,0000.71,0000.73,0000.22,0000.03,0000.33,0000.20,0000.36,-000.16,-000.01,18.5,24.7,01.1,00.8,0675.3,31.0
2021-08-31T10:50:00Z,00000200,01000000,0000.34,0000.32,0000.19,-000.32,0000.02,0000.25,0000.31,0000.66,0000.02,18.6,24.8,01.1,00.7,0675.3,31.0
2021-08-31T10:51:00Z,00000200,01000000,0000.28,0000.19,0000.13,0000.20,0000.34,0000.41,-000.83,-000.64,-000.54,18.6,24.8,01.2,00.8,0675.3,31.0
2021-08-31T10:52:00Z,00000200,01000000,0000.75,0000.60,0000.52,-000.27,0000.22,0000.33,0000.59,0000.30,0000.62,18.5,24.8,01.1,00.7,0675.3,30.9
2021-08-31T10:53:00Z,00000200,01000000,0000.57,0000.75,0000.32,0000.40,0000.17,0000.47,-000.27,0000.01,-000.36,18.5,24.8,01.2,00.8,0675.3,30.9
2021-08-31T10:54:00Z,00000200,01000000,0001.40,0000.66,0000.33,-000.26,0000.39,0000.04,-000.23,-000.24,-000.38,18.4,24.7,01.0,00.7,0675.3,30.9
2021-08-31T10:55:00Z,00000200,01000000,0000.66,0000.54,0000.41,-000.20,0000.38,0000.17,-000.07,-000.39,0000.05,18.4,24.7,01.0,00.6,0675.3,30.9
2021-08-31T10:56:00Z,00000200,01000000,0000.48,0000.66,0000.18,-000.48,0000.06,0000.16,-000.49,-000.64,-000.38,18.3,24.7,00.9,00.6,0675.3,30.9
2021-08-31T10:57:00Z,00000200,41000000,,,,,,,-001.07,-000.77,-001.02,18.3,24.7,00.9,00.6,0675.3,30.9
2021-08-31T10:58:00Z,00000200,61000000,,,,,,,-000.55,-000.59,0000.08,17.9,24.8,00.1,00.1,0674.3,30.9
2021-08-31T10:59:00Z,00000200,21000000,,,,,,,0000.16,0000.03,-000.23,17.9,24.9,,00.0,0674.3,30.9
